Tiempo atmosférico en la estación meteorológica de Marbella, Puerto, Málaga (6 m.)



Fecha
DESCASC
Temp. máxima en grados centígrados (hora)
DESCASC
Temp. mínima en grados centígrados (hora)
DESCASC
Temp. media en grados centígrados
DESCASC
Racha de viento máxima en m/sg (hora)
DESCASC
Velocidad máxima media en intervalos de 10 minutos(hora)
DESCASC
Precipitaciones diarias en mm
DESCASC
Precipitaciones de 00:00 a 06:00 en mm
DESCASC
Precipitaciones de 06:00 a 12:00 en mm
DESCASC
Precipitaciones de 12:00 a 18:00 en mm
DESCASC
Precipitaciones de 18:00 a 24:00 en mm
DESCASC
13-10-2019 23.9 (12:50) 18.9 (07:30) 21.4 4.72 (06:40) 2.78 (06:40) 0 0 0 0 0
12-10-2019 25.1 (14:50) 20.8 (23:40) 22.9 3.89 (07:10) 3.06 (09:30) 0 0 0 0 0
11-10-2019 24.5 (12:00) 20.3 (08:30) 22.4 10 (02:20) 7.22 (02:40) 0 0 0 0 0
10-10-2019 23.5 (12:40) 18.4 (00:00) 20.9 10.56 (17:10) 8.33 (16:10) 0 0 0 0 0
09-10-2019 24.1 (13:50) 19 (00:00) 21.6 4.72 (12:30) 3.33 (12:40) 0 0 0 0 0
08-10-2019 24 (11:20) 19.4 (00:00) 21.7 10 (09:40) 8.06 (09:50) 0 0 0 0 0
07-10-2019 24.2 (16:20) 17.5 (00:00) 20.9 3.61 (20:20) 3.06 (20:20) 0 0 0 0 0
06-10-2019 23.1 (16:30) 17.8 (00:00) 20.4 5 (22:40) 3.89 (22:40) 0 0 0 0 0
05-10-2019 23.2 (15:30) 17.5 (00:00) 20.4 3.33 (14:30) 2.5 (14:30) 0 0 0 0 0
04-10-2019 25 (17:50) 18.3 (00:00) 21.6 4.44 (03:10) 3.06 (05:30) 0 0 0 0 0
03-10-2019 24.8 (15:30) 17.2 (00:00) 21 4.44 (01:10) 3.33 (19:20) 0 0 0 0 0
02-10-2019 25.9 (15:10) 19.3 (00:00) 22.6 18.06 (16:50) 12.78 (16:10) 0 0 0 0 0
01-10-2019 28.1 (20:40) 18.6 (00:00) 23.4 9.17 (19:20) 6.67 (19:30) 0 0 0 0 0
30-09-2019 23.8 (16:30) 18.7 (00:00) 21.3 5.28 (15:30) 4.44 (15:20) 0 0 0 0 0
29-09-2019 25.1 (13:10) 18.8 (00:00) 21.9 3.89 (06:00) 2.5 (03:10) 0 0 0 0 0
28-09-2019 23.1 (16:40) 19.2 (00:00) 21.2 3.61 (06:20) 2.22 (06:20) 0 0 0 0 0
27-09-2019 23.9 (12:40) 19.1 (00:00) 21.5 4.72 (21:20) 3.89 (21:20) 0 0 0 0 0
26-09-2019 26 (17:30) 19.1 (00:00) 22.6 8.89 (14:20) 6.67 (12:40) 0 0 0 0 0
25-09-2019 25.9 (17:10) 19.8 (00:00) 22.8 4.72 (18:40) 3.89 (18:40) 0 0 0 0 0
24-09-2019 24 (16:20) 17.6 (00:00) 20.8 5 (17:10) 4.17 (17:10) 0 0 0 0 0
23-09-2019 23.8 (16:00) 18.4 (00:00) 21.1 5 (04:20) 3.33 (04:20) 0 0 0 0 0
22-09-2019 25.6 (15:00) 19.8 (00:00) 22.7 12.5 (13:20) 10.56 (13:30) 0 0 0 0 0
21-09-2019 23.9 (15:00) 21.4 (00:00) 22.6 3.89 (14:20) 3.61 (14:20) 0 0 0 0 0
20-09-2019 25.6 (11:20) 21.3 (00:00) 23.4 8.33 (13:10) 6.39 (13:10) 0 0 0 0 0
19-09-2019 24.4 (16:50) 20.2 (00:00) 22.3 3.61 (10:00) 3.06 (10:10) 0 0 0 0 0
18-09-2019 24.7 (17:10) 20.1 (00:00) 22.4 4.44 (14:00) 3.61 (12:00) 0 0 0 0 0
17-09-2019 25.5 (11:20) 21.3 (00:00) 23.4 7.78 (16:00) 6.11 (16:00) 0 0 0 0 0
16-09-2019 23.6 (19:30) 21 (00:00) 22.3 5 (11:40) 4.17 (11:40) 0 0 0 0 0

Gráficas

Temp. máximas Temp. mínimas Temp. medias Precipitaciones Rachas de viento máximas Velocidades máximas media en intervalos de 10 minutos

Datos horarios

Fecha y hora oficial Temperatura (ºC) Velocidad del viento (km/h) Dirección del viento Racha (km/h) Dirección de racha Precipitación (mm) Presión (hPa) Tendencia (hPa) Humedad (%)
2019-10-15 23:00:00 -- -- -- -- -- -- -- -- --
2019-10-15 22:00:00 -- -- -- -- -- -- -- -- --
2019-10-15 21:00:00 17.9 8 Norte 11 Noroeste 0 -- -- 57
2019-10-15 20:00:00 19.2 3 Nordeste 6 Nordeste 0 -- -- 77
2019-10-15 19:00:00 19.6 0 Calma 11 Sudoeste 0 -- -- 74
2019-10-15 18:00:00 20.3 10 Sudoeste 13 Sudoeste 0 -- -- 71
2019-10-15 17:00:00 19.5 9 Sudoeste 12 Sudoeste 0 -- -- 70
2019-10-15 16:00:00 20.2 6 Sudoeste 13 Sudoeste 0 -- -- 54
2019-10-15 15:00:00 19.2 12 Sudoeste 17 Sudoeste 0 -- -- 57
2019-10-15 14:00:00 19 13 Sudoeste 17 Sudoeste 0 -- -- 60
2019-10-15 13:00:00 18.5 13 Sudoeste 16 Sudoeste 0 -- -- 64
2019-10-15 12:00:00 18.6 11 Sur 14 Sur 0 -- -- 58
2019-10-15 11:00:00 20.1 5 Sudoeste 15 Noroeste 0 -- -- 48
2019-10-15 10:00:00 18.1 9 Noroeste 18 Noroeste 0 -- -- 50
2019-10-15 09:00:00 15.8 9 Norte 19 Noroeste 0 -- -- 60
2019-10-15 08:00:00 15.5 6 Norte 15 Noroeste 0 -- -- 64
2019-10-15 07:00:00 15.6 7 Norte 13 Noroeste 0 -- -- 64
2019-10-15 06:00:00 16.1 4 Norte 10 Oeste 0 -- -- 61
2019-10-15 05:00:00 17.1 5 Nordeste 11 Noroeste 0 -- -- 60
2019-10-15 04:00:00 17.5 4 Oeste 11 Oeste 0 -- -- 58
2019-10-15 03:00:00 17.7 3 Oeste 9 Noroeste 0 -- -- 64
2019-10-15 02:00:00 18.1 3 Norte 11 Este 0 -- -- 80
2019-10-15 01:00:00 18.2 7 Oeste 33 Sudoeste 0 -- -- 85
2019-10-15 00:00:00 19.2 22 Oeste 28 Oeste 0 -- -- 80
2019-10-14 23:00:00 19.6 18 Oeste 28 Oeste 0 -- -- 67
2019-10-14 22:00:00 19.8 20 Oeste 26 Oeste 0 -- -- 71
2019-10-14 21:00:00 20.3 14 Oeste 31 Oeste 0 -- -- 54
2019-10-14 20:00:00 21 16 Oeste 43 Oeste 0 -- -- 46
2019-10-14 19:00:00 22.2 28 Oeste 54 Sudoeste 0 -- -- 47
2019-10-14 18:00:00 22.3 42 Sudoeste 55 Oeste 0 -- -- 60
2019-10-14 17:00:00 22.4 39 Sudoeste 51 Sudoeste 0 -- -- 69
2019-10-14 16:00:00 22.2 44 Sudoeste 52 Sudoeste 0 -- -- 70
2019-10-14 15:00:00 22.1 37 Sudoeste 49 Sudoeste 0 -- -- 70
2019-10-14 14:00:00 21.8 36 Sudoeste 46 Sudoeste 0 -- -- 70
2019-10-14 13:00:00 21.9 29 Sudoeste 36 Sudoeste 0 -- -- 76
2019-10-14 12:00:00 22.2 14 Oeste 34 Sudoeste 0 -- -- 64
2019-10-14 11:00:00 21.4 30 Sudoeste 37 Sudoeste 0 -- -- 82
2019-10-14 10:00:00 22.5 28 Sudoeste 41 Oeste 0 -- -- 75
2019-10-14 09:00:00 21.5 20 Oeste 35 Oeste 0 -- -- 72
2019-10-14 08:00:00 21.5 24 Sudoeste 28 Sudoeste 0 -- -- 82
2019-10-14 07:00:00 21.1 15 Sudoeste 19 Sudoeste 0 -- -- 88
2019-10-14 06:00:00 20.9 8 Oeste 27 Oeste 0 -- -- 88
2019-10-14 05:00:00 20.6 6 Oeste 11 Oeste 0 -- -- 86
2019-10-14 04:00:00 21 3 Noroeste 8 Noroeste 0 -- -- 86
2019-10-14 03:00:00 21.1 4 Norte 12 Nordeste 0 -- -- 84
2019-10-14 02:00:00 21.2 7 Noroeste 13 Noroeste 0 -- -- 84
2019-10-14 01:00:00 21.1 4 Norte 9 Norte 0 -- -- 89
2019-10-14 00:00:00 21.4 5 Nordeste 13 Este 0 -- -- 89
2019-10-13 23:00:00 21.5 9 Este 12 Este 0 -- -- 88
2019-10-13 22:00:00 21.6 3 Este 6 Nordeste 0 -- -- 87
2019-10-13 21:00:00 21.4 0 Calma 5 Sudoeste 0 -- -- 88
2019-10-13 20:00:00 21.7 3 Sudoeste 5 Sudoeste 0 -- -- 88
2019-10-13 19:00:00 22.6 4 Nordeste 9 Nordeste 0 -- -- 84
2019-10-13 18:00:00 23.4 3 Sudoeste 7 Sudeste 0 -- -- 81
2019-10-13 17:00:00 23.7 6 Este 9 Este 0 -- -- 78
2019-10-13 16:00:00 23.9 3 Este 8 Este 0 -- -- 73
2019-10-13 15:00:00 23.7 3 Sudeste 9 Sudeste 0 -- -- 76
2019-10-13 14:00:00 23 5 Sudeste 8 Sudeste 0 -- -- 79
2019-10-13 13:00:00 23.6 5 Este 8 Este 0 -- -- 79
2019-10-13 12:00:00 23.5 3 Este 6 Nordeste 0 -- -- 79
2019-10-13 11:00:00 22.8 4 Este 6 Este 0 -- -- 76
2019-10-13 10:00:00 22.3 2 Noroeste 13 Norte 0 -- -- 71
2019-10-13 09:00:00 19.3 10 Norte 15 Norte 0 -- -- 79
2019-10-13 08:00:00 18.9 9 Norte 15 Norte 0 -- -- 81
2019-10-13 07:00:00 19.1 8 Norte 17 Noroeste 0 -- -- 81
2019-10-13 06:00:00 19.3 6 Norte 15 Norte 0 -- -- 80
2019-10-13 05:00:00 19.3 7 Norte 14 Norte 0 -- -- 82
2019-10-13 04:00:00 19.2 6 Norte 12 Noroeste 0 -- -- 85
2019-10-13 03:00:00 19.5 8 Norte 14 Norte 0 -- -- 85
2019-10-13 02:00:00 19.7 7 Norte 12 Norte 0 -- -- 86
2019-10-13 01:00:00 20.3 6 Norte 12 Norte 0 -- -- 86
2019-10-13 00:00:00 20.8 4 Norte 9 Noroeste 0 -- -- 85
2019-10-12 23:00:00 21.4 2 Norte 5 Noroeste 0 -- -- 84
2019-10-12 22:00:00 21.7 0 Calma 5 Nordeste 0 -- -- 84
2019-10-12 21:00:00 22.1 2 Nordeste 4 Nordeste 0 -- -- 84
2019-10-12 20:00:00 22.4 3 Nordeste 5 Nordeste 0 -- -- 84
2019-10-12 19:00:00 23.4 3 Este 5 Sudeste 0 -- -- 80
2019-10-12 18:00:00 23.5 3 Sur 6 Sudoeste 0 -- -- 74
2019-10-12 17:00:00 24 4 Sur 8 Sudoeste 0 -- -- 73
2019-10-12 16:00:00 23.7 4 Sur 12 Sudeste 0 -- -- 75
2019-10-12 15:00:00 25 2 Sudoeste 7 Sur 0 -- -- 70
2019-10-12 14:00:00 23.8 5 Sudeste 11 Este 0 -- -- 78
2019-10-12 13:00:00 23.5 8 Este 12 Sudeste 0 -- -- 82
2019-10-12 12:00:00 23.3 9 Sudeste 12 Sudeste 0 -- -- 81
2019-10-12 11:00:00 23.1 10 Sudeste 13 Noroeste 0 -- -- 76
2019-10-12 10:00:00 21.3 7 Norte 14 Norte 0 -- -- 77
2019-10-12 09:00:00 20.9 10 Noroeste 13 Noroeste 0 -- -- 78
2019-10-12 08:00:00 21 8 Norte 14 Noroeste 0 -- -- 79
2019-10-12 07:00:00 21.2 8 Norte 13 Norte 0 -- -- 76
2019-10-12 06:00:00 21 8 Noroeste 12 Noroeste 0 -- -- 77
2019-10-12 05:00:00 21.2 6 Norte 13 Noroeste 0 -- -- 77
2019-10-12 04:00:00 21.7 7 Norte 13 Norte 0 -- -- 77
2019-10-12 03:00:00 21.1 7 Norte 12 Norte 0 -- -- 80
2019-10-12 02:00:00 21.1 6 Norte 10 Norte 0 -- -- 82
2019-10-12 01:00:00 21.4 3 Noroeste 11 Norte 0 -- -- 81
2019-10-12 00:00:00 21.6 3 Norte 11 Norte 0 -- -- 81
2019-10-11 23:00:00 21.6 5 Norte 11 Norte 0 -- -- 82
2019-10-11 22:00:00 21.9 4 Norte 8 Nordeste 0 -- -- 82
2019-10-11 21:00:00 22.2 8 Nordeste 10 Norte 0 -- -- 80
2019-10-11 20:00:00 22.1 0 Calma 6 Nordeste 0 -- -- 82
2019-10-11 19:00:00 22.4 6 Nordeste 11 Nordeste 0 -- -- 83
2019-10-11 18:00:00 23.1 6 Nordeste 9 Este 0 -- -- 79
2019-10-11 17:00:00 23.6 7 Este 14 Este 0 -- -- 79
2019-10-11 16:00:00 23.1 12 Este 19 Este 0 -- -- 79
2019-10-11 15:00:00 22.5 13 Este 20 Sudeste 0 -- -- 81
2019-10-11 14:00:00 22.5 15 Este 23 Este 0 -- -- 80
2019-10-11 13:00:00 23.7 13 Este 17 Este 0 -- -- 75
2019-10-11 12:00:00 24.5 11 Este 18 Este 0 -- -- 73
2019-10-11 11:00:00 22.6 11 Nordeste 18 Nordeste 0 -- -- 77
2019-10-11 10:00:00 21.6 5 Norte 15 Norte 0 -- -- 71
2019-10-11 09:00:00 21.1 7 Norte 15 Noroeste 0 -- -- 73
2019-10-11 08:00:00 20.9 7 Norte 17 Norte 0 -- -- 76
2019-10-11 07:00:00 21.4 5 Norte 21 Nordeste 0 -- -- 79
2019-10-11 06:00:00 21.8 14 Nordeste 21 Nordeste 0 -- -- 81
2019-10-11 05:00:00 21.9 15 Nordeste 28 Este 0 -- -- 82
2019-10-11 04:00:00 22.2 23 Nordeste 31 Nordeste 0 -- -- 79
2019-10-11 03:00:00 22.2 24 Nordeste 36 Nordeste 0 -- -- 79
2019-10-11 02:00:00 22.3 22 Nordeste 31 Nordeste 0 -- -- 78
2019-10-11 01:00:00 22.5 19 Nordeste 29 Nordeste 0 -- -- 77
2019-10-11 00:00:00 22.5 19 Nordeste 28 Nordeste 0 -- -- 76
2019-10-10 23:00:00 22.3 16 Nordeste 22 Nordeste 0 -- -- 78
2019-10-10 22:00:00 22.2 13 Nordeste 23 Este 0 -- -- 79
2019-10-10 21:00:00 22.4 18 Nordeste 30 Nordeste 0 -- -- 79
2019-10-10 20:00:00 22.2 22 Este 33 Este 0 -- -- 80
2019-10-10 19:00:00 22.5 24 Este 33 Este 0 -- -- 80
2019-10-10 18:00:00 22.7 26 Este 38 Este 0 -- -- 79
2019-10-10 17:00:00 22.8 30 Este 37 Este 0 -- -- 78
2019-10-10 16:00:00 22.8 30 Este 37 Este 0 -- -- 78
2019-10-10 15:00:00 22.9 27 Este 37 Este 0 -- -- 78
2019-10-10 14:00:00 22.8 26 Este 35 Este 0 -- -- 79
2019-10-10 13:00:00 23.1 28 Este 35 Este 0 -- -- 78
2019-10-10 12:00:00 23 23 Este 30 Este 0 -- -- 78
2019-10-10 11:00:00 22.7 24 Este 36 Nordeste 0 -- -- 77
2019-10-10 10:00:00 22.3 26 Nordeste 33 Nordeste 0 -- -- 74
2019-10-10 09:00:00 21.2 7 Nordeste 14 Norte 0 -- -- 61
2019-10-10 08:00:00 20 6 Norte 17 Norte 0 -- -- 65
2019-10-10 07:00:00 19.7 6 Norte 14 Noroeste 0 -- -- 69
2019-10-10 06:00:00 19.2 6 Norte 15 Norte 0 -- -- 73
2019-10-10 05:00:00 18.4 9 Norte 12 Noroeste 0 -- -- 81
2019-10-10 04:00:00 19.3 5 Norte 12 Noroeste 0 -- -- 79
2019-10-10 03:00:00 19.1 7 Norte 12 Norte 0 -- -- 80
2019-10-10 02:00:00 19.1 8 Norte 13 Norte 0 -- -- 83
2019-10-10 01:00:00 19.5 7 Norte 14 Norte 0 -- -- 82
2019-10-10 00:00:00 20.1 7 Noroeste 10 Norte 0 -- -- 85
2019-10-09 23:00:00 19.9 4 Norte 6 Noroeste 0 -- -- 89
2019-10-09 22:00:00 21.1 0 Calma 3 Sur 0 -- -- 91
2019-10-09 21:00:00 21.4 0 Calma 6 Oeste 0 -- -- 89
2019-10-09 20:00:00 22 4 Sudoeste 5 Sudoeste 0 -- -- 89
2019-10-09 19:00:00 22.2 2 Sudeste 3 Sudeste 0 -- -- 85
2019-10-09 18:00:00 22.8 2 Sudeste 5 Sur 0 -- -- 81
2019-10-09 17:00:00 22.7 5 Sudeste 6 Sudeste 0 -- -- 81
2019-10-09 16:00:00 22.8 4 Sudeste 8 Sudeste 0 -- -- 81
2019-10-09 15:00:00 22.7 4 Sudeste 8 Este 0 -- -- 80
2019-10-09 14:00:00 24.1 5 Este 10 Sudeste 0 -- -- 73
2019-10-09 13:00:00 22.3 9 Sudeste 17 Sudeste 0 -- -- 81
2019-10-09 12:00:00 23.3 4 Nordeste 10 Este 0 -- -- 72
2019-10-09 11:00:00 23.5 3 Este 8 Este 0 -- -- 57
2019-10-09 10:00:00 22 5 Norte 15 Norte 0 -- -- 62
2019-10-09 09:00:00 20 10 Norte 16 Norte 0 -- -- 73
2019-10-09 08:00:00 19.1 11 Noroeste 14 Norte 0 -- -- 77
2019-10-09 07:00:00 19.4 9 Noroeste 15 Noroeste 0 -- -- 77
2019-10-09 06:00:00 19.4 9 Noroeste 16 Norte 0 -- -- 78
2019-10-09 05:00:00 19.3 11 Norte 16 Noroeste 0 -- -- 79
2019-10-09 04:00:00 19.8 9 Noroeste 13 Noroeste 0 -- -- 79
2019-10-09 03:00:00 20 9 Noroeste 13 Noroeste 0 -- -- 78
2019-10-09 02:00:00 20.4 7 Norte 12 Norte 0 -- -- 77
2019-10-09 01:00:00 20.8 5 Norte 9 Noroeste 0 -- -- 75
2019-10-09 00:00:00 21.2 6 Norte 13 Norte 0 -- -- 75
2019-10-08 23:00:00 21.4 6 Norte 12 Norte 0 -- -- 75
2019-10-08 22:00:00 22.4 4 Norte 12 Nordeste 0 -- -- 71
2019-10-08 21:00:00 22.1 11 Nordeste 17 Nordeste 0 -- -- 78
2019-10-08 20:00:00 22.3 15 Este 27 Este 0 -- -- 78
2019-10-08 19:00:00 22.6 22 Este 32 Este 0 -- -- 76
2019-10-08 18:00:00 22.7 26 Este 31 Este 0 -- -- 77
2019-10-08 17:00:00 22.7 23 Este 30 Este 0 -- -- 79
2019-10-08 16:00:00 22.5 22 Este 29 Este 0 -- -- 85
2019-10-08 15:00:00 22.6 21 Este 30 Este 0 -- -- 82
2019-10-08 14:00:00 22.5 25 Este 32 Este 0 -- -- 71
2019-10-08 13:00:00 22.9 24 Este 32 Este 0 -- -- 71
2019-10-08 12:00:00 23.2 23 Este 30 Este 0 -- -- 74
2019-10-08 11:00:00 23.4 25 Este 36 Este 0 -- -- 75
2019-10-08 10:00:00 23 28 Este 36 Este 0 -- -- 77
2019-10-08 09:00:00 21.6 12 Nordeste 30 Este 0 -- -- 80
2019-10-08 08:00:00 20.9 12 Nordeste 21 Nordeste 0 -- -- 76
2019-10-08 07:00:00 20.5 6 Norte 14 Nordeste 0 -- -- 71
2019-10-08 06:00:00 20.4 4 Nordeste 14 Nordeste 0 -- -- 77
2019-10-08 05:00:00 19.9 0 Calma 8 Noroeste 0 -- -- 77
2019-10-08 04:00:00 20.6 5 Norte 13 Norte 0 -- -- 74
2019-10-08 03:00:00 20 8 Noroeste 10 Noroeste 0 -- -- 83
2019-10-08 02:00:00 20.4 8 Nordeste 13 Nordeste 0 -- -- 85
2019-10-08 01:00:00 20.4 8 Nordeste 15 Nordeste 0 -- -- 90
2019-10-08 00:00:00 20.6 6 Nordeste 10 Nordeste 0 -- -- 89
2019-10-07 23:00:00 21.2 9 Nordeste 12 Nordeste 0 -- -- 91
2019-10-07 22:00:00 21.3 8 Nordeste 12 Nordeste 0 -- -- 90
2019-10-07 21:00:00 21.6 8 Nordeste 13 Nordeste 0 -- -- 90
2019-10-07 20:00:00 22.5 4 Nordeste 6 Nordeste 0 -- -- 82
2019-10-07 19:00:00 23.1 4 Este 5 Sudeste 0 -- -- 78
2019-10-07 18:00:00 23.3 3 Sudeste 7 Este 0 -- -- 75
2019-10-07 17:00:00 23.1 4 Sudeste 6 Este 0 -- -- 73
2019-10-07 16:00:00 23.1 4 Este 7 Este 0 -- -- 76
2019-10-07 15:00:00 22.7 3 Sudeste 6 Sudeste 0 -- -- 76
2019-10-07 14:00:00 22.8 3 Sudeste 6 Sur 0 -- -- 81
2019-10-07 13:00:00 21.8 5 Sur 7 Sur 0 -- -- 84
2019-10-07 12:00:00 22.8 5 Sudoeste 7 Sudoeste 0 -- -- 79
2019-10-07 11:00:00 23.1 0 Calma 5 Este 0 -- -- 71
2019-10-07 10:00:00 21.3 3 Nordeste 6 Norte 0 -- -- 70
2019-10-07 09:00:00 19.7 5 Norte 6 Norte 0 -- -- 73
2019-10-07 08:00:00 17.7 0 Calma 6 Noroeste 0 -- -- 76
2019-10-07 07:00:00 18 0 Calma 8 Oeste 0 -- -- 74
2019-10-07 06:00:00 18.8 5 Oeste 9 Oeste 0 -- -- 73
2019-10-07 05:00:00 18.2 0 Calma 4 Este 0 -- -- 75
2019-10-07 04:00:00 17.9 3 Noroeste 5 Noroeste 0 -- -- 82
2019-10-07 03:00:00 19.1 3 Oeste 6 Noroeste 0 -- -- 91
2019-10-07 02:00:00 19 3 Noroeste 6 Noroeste 0 -- -- 92
2019-10-07 01:00:00 20 0 Calma 8 Nordeste 0 -- -- 93
2019-10-07 00:00:00 20.3 6 Nordeste 15 Nordeste 0 -- -- 93
2019-10-06 23:00:00 20.7 12 Nordeste 18 Nordeste 0 -- -- 91
2019-10-06 22:00:00 21 5 Nordeste 8 Este 0 -- -- 89
2019-10-06 21:00:00 21 2 Nordeste 7 Nordeste 0 -- -- 88
2019-10-06 20:00:00 21.3 4 Nordeste 6 Sur 0 -- -- 86
2019-10-06 19:00:00 21.8 4 Sur 7 Nordeste 0 -- -- 83
2019-10-06 18:00:00 22.3 3 Sudeste 5 Sur 0 -- -- 81
2019-10-06 17:00:00 22.4 4 Sudeste 8 Sur 0 -- -- 81
2019-10-06 16:00:00 22.4 3 Sudoeste 5 Sudoeste 0 -- -- 86
2019-10-06 15:00:00 20.1 3 Este 5 Sudeste 0 -- -- 92
2019-10-06 14:00:00 19.2 3 Sudeste 8 Sur 0 -- -- 94
2019-10-06 13:00:00 18.9 4 Sur 6 Sur 0 -- -- 95
2019-10-06 12:00:00 18.5 3 Sur 10 Sur 0 -- -- 96
2019-10-06 11:00:00 18.4 9 Sudoeste 14 Sudoeste 0 -- -- 95
2019-10-06 10:00:00 19.1 11 Oeste 13 Oeste 0 -- -- 93
2019-10-06 09:00:00 18.7 2 Oeste 7 Noroeste 0 -- -- 94
2019-10-06 08:00:00 18.9 2 Noroeste 9 Este 0 -- -- 93
2019-10-06 07:00:00 18.9 6 Nordeste 11 Nordeste 0 -- -- 88
2019-10-06 06:00:00 18.4 8 Norte 12 Nordeste 0 -- -- 81
2019-10-06 05:00:00 18.6 3 Nordeste 6 Nordeste 0 -- -- 80
2019-10-06 04:00:00 18.3 2 Norte 8 Norte 0 -- -- 72
2019-10-06 03:00:00 18.3 2 Nordeste 6 Norte 0 -- -- 84
2019-10-06 02:00:00 19 3 Norte 5 Norte 0 -- -- 88
2019-10-06 01:00:00 19.4 4 Nordeste 7 Oeste 0 -- -- 89
2019-10-06 00:00:00 19.9 3 Sudoeste 7 Oeste 0 -- -- 88
2019-10-05 23:00:00 20.1 0 Calma 7 Nordeste 0 -- -- 89
2019-10-05 22:00:00 20.2 5 Oeste 8 Sudeste 0 -- -- 89
2019-10-05 21:00:00 20.7 4 Nordeste 6 Nordeste 0 -- -- 89
2019-10-05 20:00:00 21.6 6 Nordeste 8 Nordeste 0 -- -- 83
2019-10-05 19:00:00 21.9 5 Este 8 Nordeste 0 -- -- 81
2019-10-05 18:00:00 21.8 6 Este 9 Sudeste 0 -- -- 83
2019-10-05 17:00:00 22.5 5 Este 8 Este 0 -- -- 77
2019-10-05 16:00:00 22.1 2 Este 8 Nordeste 0 -- -- 81
2019-10-05 15:00:00 22.9 7 Nordeste 12 Este 0 -- -- 79
2019-10-05 14:00:00 22.8 6 Este 10 Este 0 -- -- 74
2019-10-05 13:00:00 22.3 5 Nordeste 7 Nordeste 0 -- -- 75
2019-10-05 12:00:00 20.9 5 Sudeste 6 Sudeste 0 -- -- 80
2019-10-05 11:00:00 21 4 Este 5 Este 0 -- -- 73
2019-10-05 10:00:00 21.5 3 Este 5 Este 0 -- -- 66
2019-10-05 09:00:00 20.2 0 Calma 4 Oeste 0 -- -- 70
2019-10-05 08:00:00 18 0 Calma 6 Norte 0 -- -- 75
2019-10-05 07:00:00 17.5 4 Norte 7 Norte 0 -- -- 76
2019-10-05 06:00:00 18.5 0 Calma 4 Sudoeste 0 -- -- 76
2019-10-05 05:00:00 19 0 Calma 8 Noroeste 0 -- -- 74
2019-10-05 04:00:00 18.6 0 Calma 10 Noroeste 0 -- -- 73
2019-10-05 03:00:00 19 2 Norte 4 Norte 0 -- -- 81
2019-10-05 02:00:00 19.6 0 Calma 7 Nordeste 0 -- -- 80
2019-10-05 01:00:00 19.5 0 Calma 4 Oeste 0 -- -- 76
2019-10-05 00:00:00 20.2 0 Calma 12 Nordeste 0 -- -- 79
2019-10-04 23:00:00 19.7 8 Nordeste 10 Nordeste 0 -- -- 66
2019-10-04 22:00:00 20.4 6 Nordeste 8 Nordeste 0 -- -- 74
2019-10-04 21:00:00 21.1 2 Nordeste 4 Este 0 -- -- 74
2019-10-04 20:00:00 21.2 2 Este 4 Este 0 -- -- 62
2019-10-04 19:00:00 22 3 Este 5 Este 0 -- -- 66
2019-10-04 18:00:00 23.9 2 Sudoeste 8 Sudoeste 0 -- -- 52
2019-10-04 17:00:00 23.9 5 Sudoeste 7 Sudoeste 0 -- -- 58
2019-10-04 16:00:00 23.1 3 Sudoeste 5 Sudoeste 0 -- -- 61
2019-10-04 15:00:00 22 4 Sur 6 Sudoeste 0 -- -- 69
2019-10-04 14:00:00 22.7 5 Sudoeste 8 Sur 0 -- -- 66
2019-10-04 13:00:00 23.5 2 Sudeste 4 Sudeste 0 -- -- 60
2019-10-04 12:00:00 22.2 4 Sur 6 Sur 0 -- -- 69
2019-10-04 11:00:00 24 0 Calma 3 Noroeste 0 -- -- 49
2019-10-04 10:00:00 24.2 3 Noroeste 10 Noroeste 0 -- -- 46
2019-10-04 09:00:00 19.7 7 Noroeste 12 Norte 0 -- -- 54
2019-10-04 08:00:00 18.3 8 Noroeste 12 Norte 0 -- -- 58
2019-10-04 07:00:00 18.7 9 Norte 12 Noroeste 0 -- -- 63
2019-10-04 06:00:00 19 6 Norte 14 Norte 0 -- -- 71
2019-10-04 05:00:00 19.4 2 Norte 9 Norte 0 -- -- 76
2019-10-04 04:00:00 19.8 5 Nordeste 16 Norte 0 -- -- 60
2019-10-04 03:00:00 20.5 3 Oeste 14 Noroeste 0 -- -- 69
2019-10-04 02:00:00 19.2 3 Norte 14 Norte 0 -- -- 67
2019-10-04 01:00:00 20.8 8 Norte 13 Noroeste 0 -- -- 51
2019-10-04 00:00:00 20.6 4 Este 8 Sudeste 0 -- -- 74
2019-10-03 23:00:00 21.8 2 Sur 7 Norte 0 -- -- 75
2019-10-03 22:00:00 21.9 4 Norte 11 Norte 0 -- -- 72
2019-10-03 21:00:00 21.5 8 Nordeste 12 Nordeste 0 -- -- 78
2019-10-03 20:00:00 21.6 8 Nordeste 14 Nordeste 0 -- -- 82
2019-10-03 19:00:00 22.3 6 Nordeste 13 Nordeste 0 -- -- 80
2019-10-03 18:00:00 22.9 11 Nordeste 14 Nordeste 0 -- -- 74
2019-10-03 17:00:00 24.7 5 Este 8 Sudeste 0 -- -- 64
2019-10-03 16:00:00 23.2 5 Sudeste 10 Sudeste 0 -- -- 66
2019-10-03 15:00:00 23.6 3 Sur 9 Sudeste 0 -- -- 67
2019-10-03 14:00:00 22 7 Sudeste 9 Sudeste 0 -- -- 72
2019-10-03 13:00:00 22.4 4 Nordeste 9 Este 0 -- -- 70
2019-10-03 12:00:00 22.1 7 Nordeste 8 Nordeste 0 -- -- 61
2019-10-03 11:00:00 21.3 0 Calma 9 Este 0 -- -- 63
2019-10-03 10:00:00 20.6 6 Nordeste 10 Noroeste 0 -- -- 58
2019-10-03 09:00:00 18.9 7 Oeste 9 Oeste 0 -- -- 48
2019-10-03 08:00:00 17.5 3 Oeste 7 Oeste 0 -- -- 67
2019-10-03 07:00:00 17.8 3 Noroeste 11 Noroeste 0 -- -- 59
2019-10-03 06:00:00 17.5 2 Norte 8 Norte 0 -- -- 61
2019-10-03 05:00:00 18.2 3 Norte 9 Nordeste 0 -- -- 63
2019-10-03 04:00:00 19.1 2 Norte 11 Norte 0 -- -- 66
2019-10-03 03:00:00 19.1 3 Norte 9 Nordeste 0 -- -- 65
2019-10-03 02:00:00 20.1 5 Noroeste 16 Noroeste 0 -- -- 50
2019-10-03 01:00:00 19.8 5 Noroeste 14 Norte 0 -- -- 45
2019-10-03 00:00:00 20.1 4 Noroeste 9 Norte 0 -- -- 49
2019-10-02 23:00:00 20.5 4 Este 7 Este 0 -- -- 68
2019-10-02 22:00:00 21.2 3 Este 13 Norte 0 -- -- 63
2019-10-02 21:00:00 22.8 5 Norte 37 Oeste 0 -- -- 46
2019-10-02 20:00:00 23.2 27 Oeste 54 Sudoeste 0 -- -- 49
2019-10-02 19:00:00 23 42 Sudoeste 58 Sudoeste 0 -- -- 58
2019-10-02 18:00:00 23.6 39 Sudoeste 60 Sudoeste 0 -- -- 54
2019-10-02 17:00:00 23.6 40 Sudoeste 65 Sudoeste 0 -- -- 55
2019-10-02 16:00:00 24.6 45 Sudoeste 58 Sudoeste 0 -- -- 50
2019-10-02 15:00:00 25.7 3 Sudoeste 10 Nordeste 0 -- -- 55
2019-10-02 14:00:00 23.2 4 Este 9 Nordeste 0 -- -- 70
2019-10-02 13:00:00 23.7 7 Nordeste 9 Nordeste 0 -- -- 63
2019-10-02 12:00:00 23.2 5 Nordeste 8 Sudeste 0 -- -- 66
2019-10-02 11:00:00 23 9 Nordeste 12 Nordeste 0 -- -- 64
2019-10-02 10:00:00 22.4 4 Sudoeste 8 Sur 0 -- -- 59
2019-10-02 09:00:00 21.3 3 Norte 12 Sudoeste 0 -- -- 62
2019-10-02 08:00:00 19.3 3 Sudoeste 10 Sur 0 -- -- 69
2019-10-02 07:00:00 19.9 3 Oeste 8 Oeste 0 -- -- 65
2019-10-02 06:00:00 20.5 7 Norte 12 Norte 0 -- -- 60
2019-10-02 05:00:00 20.6 5 Norte 8 Nordeste 0 -- -- 61
2019-10-02 04:00:00 22.1 4 Oeste 12 Noroeste 0 -- -- 56
2019-10-02 03:00:00 22.6 6 Norte 13 Norte 0 -- -- 53
2019-10-02 02:00:00 23.9 5 Oeste 19 Oeste 0 -- -- 48
2019-10-02 01:00:00 24.1 13 Oeste 22 Oeste 0 -- -- 54
2019-10-02 00:00:00 25.8 8 Oeste 28 Noroeste 0 -- -- 45
2019-10-01 23:00:00 25.9 9 Noroeste 22 Oeste 0 -- -- 47
2019-10-01 22:00:00 25.2 14 Oeste 21 Oeste 0 -- -- 51
2019-10-01 21:00:00 27.2 6 Oeste 15 Norte 0 -- -- 39
2019-10-01 20:00:00 24.5 4 Oeste 33 Sur 0 -- -- 61
2019-10-01 19:00:00 25.4 10 Sudeste 16 Sudeste 0 -- -- 58
2019-10-01 18:00:00 26.1 8 Nordeste 15 Nordeste 0 -- -- 54
2019-10-01 17:00:00 26.5 8 Nordeste 15 Este 0 -- -- 56
2019-10-01 16:00:00 25.2 7 Nordeste 12 Este 0 -- -- 65
2019-10-01 15:00:00 23.8 10 Nordeste 14 Nordeste 0 -- -- 71
2019-10-01 14:00:00 23 12 Este 14 Este 0 -- -- 66
2019-10-01 13:00:00 22.6 5 Sudeste 9 Sudeste 0 -- -- 77
2019-10-01 12:00:00 22.3 6 Sudeste 9 Sudeste 0 -- -- 83
2019-10-01 11:00:00 23 3 Sudoeste 7 Sudoeste 0 -- -- 76
2019-10-01 10:00:00 20.4 2 Noroeste 5 Noroeste 0 -- -- 64
2019-10-01 09:00:00 19.5 0 Calma 10 Norte 0 -- -- 71
2019-10-01 08:00:00 18.6 6 Noroeste 9 Noroeste 0 -- -- 75
2019-10-01 07:00:00 19.3 5 Noroeste 9 Oeste 0 -- -- 74
2019-10-01 06:00:00 19.5 5 Oeste 8 Oeste 0 -- -- 70
2019-10-01 05:00:00 20.4 4 Norte 15 Nordeste 0 -- -- 63
2019-10-01 04:00:00 20.1 3 Norte 12 Noroeste 0 -- -- 63
2019-10-01 03:00:00 20.2 4 Noroeste 14 Noroeste 0 -- -- 61
2019-10-01 02:00:00 20.5 9 Noroeste 14 Noroeste 0 -- -- 62
2019-10-01 01:00:00 20.4 6 Noroeste 9 Noroeste 0 -- -- 67
2019-10-01 00:00:00 20.8 4 Norte 6 Noroeste 0 -- -- 72
2019-09-30 23:00:00 20.9 5 Noroeste 8 Noroeste 0 -- -- 67
2019-09-30 22:00:00 21.4 4 Noroeste 6 Sudoeste 0 -- -- 62
2019-09-30 21:00:00 21.6 3 Oeste 12 Sudoeste 0 -- -- 58
2019-09-30 20:00:00 22.3 9 Sudoeste 15 Sudoeste 0 -- -- 84
2019-09-30 19:00:00 22.6 9 Sudoeste 12 Sudoeste 0 -- -- 83
2019-09-30 18:00:00 22.8 8 Sudoeste 15 Sudoeste 0 -- -- 74
2019-09-30 17:00:00 22.5 12 Sudoeste 14 Sudoeste 0 -- -- 80
2019-09-30 16:00:00 23.2 8 Sudoeste 19 Sudoeste 0 -- -- 77
2019-09-30 15:00:00 22.3 13 Sudoeste 14 Sudoeste 0 -- -- 82
2019-09-30 14:00:00 22.7 6 Sudoeste 8 Sudoeste 0 -- -- 82
2019-09-30 13:00:00 22.2 5 Sur 8 Sudeste 0 -- -- 84
2019-09-30 12:00:00 22.4 5 Sudeste 8 Sudeste 0 -- -- 83
2019-09-30 11:00:00 22.7 6 Este 8 Este 0 -- -- 82
2019-09-30 10:00:00 22.6 6 Nordeste 10 Noroeste 0 -- -- 81
2019-09-30 09:00:00 19.9 8 Noroeste 12 Noroeste 0 -- -- 83
2019-09-30 08:00:00 18.8 5 Norte 9 Norte 0 -- -- 85
2019-09-30 07:00:00 19.2 5 Norte 10 Norte 0 -- -- 88
2019-09-30 06:00:00 19.7 4 Nordeste 9 Norte 0 -- -- 85
2019-09-30 05:00:00 19.8 5 Noroeste 8 Noroeste 0 -- -- 81
2019-09-30 04:00:00 19.8 6 Noroeste 12 Noroeste 0 -- -- 83
2019-09-30 03:00:00 19.6 4 Noroeste 8 Norte 0 -- -- 87
2019-09-30 02:00:00 19.9 5 Norte 8 Norte 0 -- -- 89
2019-09-30 01:00:00 20.4 2 Norte 4 Oeste 0 -- -- 89
2019-09-30 00:00:00 21.1 2 Sudoeste 4 Oeste 0 -- -- 89
2019-09-29 23:00:00 21.6 2 Sudoeste 8 Sudoeste 0 -- -- 90
2019-09-29 22:00:00 22.2 6 Sudoeste 8 Sudoeste 0 -- -- 90
2019-09-29 21:00:00 22.4 5 Sudoeste 7 Sudoeste 0 -- -- 89
2019-09-29 20:00:00 22.5 6 Sudoeste 10 Sudoeste 0 -- -- 89
2019-09-29 19:00:00 23.3 7 Sudoeste 9 Sudoeste 0 -- -- 86
2019-09-29 18:00:00 23.8 5 Sudoeste 8 Sudoeste 0 -- -- 82
2019-09-29 17:00:00 24 4 Sur 6 Sudeste 0 -- -- 78
2019-09-29 16:00:00 23.8 4 Sudeste 6 Sudeste 0 -- -- 75
2019-09-29 15:00:00 24.1 3 Sudeste 6 Sudeste 0 -- -- 72
2019-09-29 14:00:00 24.7 0 Calma 4 Sudeste 0 -- -- 70
2019-09-29 13:00:00 24.9 0 Calma 4 Nordeste 0 -- -- 69
2019-09-29 12:00:00 24 4 Nordeste 7 Este 0 -- -- 73
2019-09-29 11:00:00 22.8 4 Sur 8 Sur 0 -- -- 78
2019-09-29 10:00:00 22.8 4 Oeste 8 Noroeste 0 -- -- 72
2019-09-29 09:00:00 19.8 3 Norte 9 Oeste 0 -- -- 78
2019-09-29 08:00:00 19.2 6 Oeste 12 Oeste 0 -- -- 84
2019-09-29 07:00:00 19.2 2 Norte 13 Norte 0 -- -- 82
2019-09-29 06:00:00 18.8 8 Noroeste 14 Norte 0 -- -- 84
2019-09-29 05:00:00 19.1 6 Noroeste 10 Noroeste 0 -- -- 87
2019-09-29 04:00:00 19.6 3 Norte 12 Noroeste 0 -- -- 86
2019-09-29 03:00:00 19.6 6 Noroeste 11 Norte 0 -- -- 86
2019-09-29 02:00:00 20.2 6 Noroeste 8 Noroeste 0 -- -- 87
2019-09-29 01:00:00 20.4 4 Norte 7 Noroeste 0 -- -- 88
2019-09-29 00:00:00 21 5 Norte 8 Norte 0 -- -- 89
2019-09-28 23:00:00 20.8 3 Norte 7 Norte 0 -- -- 91
2019-09-28 22:00:00 21.6 3 Nordeste 5 Nordeste 0 -- -- 92
2019-09-28 21:00:00 21.7 2 Este 3 Este 0 -- -- 91
2019-09-28 20:00:00 22 0 Calma 5 Sudeste 0 -- -- 90
2019-09-28 19:00:00 22.2 5 Sudeste 6 Sudeste 0 -- -- 89
2019-09-28 18:00:00 22.8 4 Sudeste 6 Sudeste 0 -- -- 85
2019-09-28 17:00:00 23.1 4 Este 8 Este 0 -- -- 82
2019-09-28 16:00:00 22.5 6 Sudeste 10 Sudeste 0 -- -- 84
2019-09-28 15:00:00 22.4 5 Este 10 Sudeste 0 -- -- 84
2019-09-28 14:00:00 22.3 5 Sudeste 9 Sur 0 -- -- 83
2019-09-28 13:00:00 21.7 6 Sudeste 8 Sudeste 0 -- -- 84
2019-09-28 12:00:00 21.5 5 Sudeste 9 Sudeste 0 -- -- 85
2019-09-28 11:00:00 21 0 Calma 7 Este 0 -- -- 85
2019-09-28 10:00:00 20.6 3 Este 7 Norte 0 -- -- 88
2019-09-28 09:00:00 19.7 3 Nordeste 8 Sur 0 -- -- 91
2019-09-28 08:00:00 20.3 3 Sudoeste 9 Oeste 0 -- -- 93
2019-09-28 07:00:00 20.2 4 Oeste 13 Sur 0 -- -- 93
2019-09-28 06:00:00 20.2 4 Oeste 8 Sudoeste 0 -- -- 89
2019-09-28 05:00:00 19.3 0 Calma 7 Noroeste 0 -- -- 89
2019-09-28 04:00:00 19.8 3 Oeste 9 Norte 0 -- -- 91
2019-09-28 03:00:00 19.8 4 Noroeste 9 Nordeste 0 -- -- 92
2019-09-28 02:00:00 20.5 7 Nordeste 9 Nordeste 0 -- -- 91
2019-09-28 01:00:00 20.8 2 Norte 6 Nordeste 0 -- -- 90
2019-09-28 00:00:00 21 0 Calma 6 Sudoeste 0 -- -- 89
2019-09-27 23:00:00 21.3 6 Sudoeste 13 Sudoeste 0 -- -- 91
2019-09-27 22:00:00 21.5 12 Sudoeste 17 Sudoeste 0 -- -- 91
2019-09-27 21:00:00 22.4 10 Sudoeste 12 Sudoeste 0 -- -- 87
2019-09-27 20:00:00 22.2 10 Oeste 13 Sudoeste 0 -- -- 87
2019-09-27 19:00:00 22.7 10 Sudoeste 12 Sudoeste 0 -- -- 85
2019-09-27 18:00:00 22.6 5 Sur 7 Sur 0 -- -- 83
2019-09-27 17:00:00 23.2 4 Sur 6 Sur 0 -- -- 81
2019-09-27 16:00:00 22.6 6 Sur 9 Sur 0 -- -- 83
2019-09-27 15:00:00 22.4 8 Sur 11 Sur 0 -- -- 84
2019-09-27 14:00:00 22.5 7 Sur 10 Sur 0 -- -- 83
2019-09-27 13:00:00 23 5 Sudoeste 8 Sudoeste 0 -- -- 81
2019-09-27 12:00:00 23 6 Sudoeste 10 Sur 0 -- -- 83
2019-09-27 11:00:00 22.8 7 Sudoeste 12 Sudoeste 0 -- -- 83
2019-09-27 10:00:00 22.7 8 Sudoeste 11 Oeste 0 -- -- 80
2019-09-27 09:00:00 20.5 4 Oeste 10 Oeste 0 -- -- 84
2019-09-27 08:00:00 19.3 2 Oeste 7 Oeste 0 -- -- 81
2019-09-27 07:00:00 19.3 5 Noroeste 8 Noroeste 0 -- -- 81
2019-09-27 06:00:00 19.5 2 Noroeste 5 Noroeste 0 -- -- 84
2019-09-27 05:00:00 19.9 0 Calma 5 Noroeste 0 -- -- 85
2019-09-27 04:00:00 20.1 3 Noroeste 8 Noroeste 0 -- -- 83
2019-09-27 03:00:00 20.4 5 Noroeste 8 Noroeste 0 -- -- 83
2019-09-27 02:00:00 20.7 4 Norte 8 Noroeste 0 -- -- 82
2019-09-27 01:00:00 20.9 4 Noroeste 6 Noroeste 0 -- -- 85
2019-09-27 00:00:00 21.2 0 Calma 3 Noroeste 0 -- -- 89
2019-09-26 23:00:00 22 2 Oeste 3 Sur 0 -- -- 89
2019-09-26 22:00:00 22.4 0 Calma 3 Sudoeste 0 -- -- 87
2019-09-26 21:00:00 22.6 0 Calma 4 Sur 0 -- -- 86
2019-09-26 20:00:00 23.1 2 Sur 3 Sur 0 -- -- 83
2019-09-26 19:00:00 23.9 3 Este 7 Este 0 -- -- 78
2019-09-26 18:00:00 23.8 5 Este 16 Este 0 -- -- 83
2019-09-26 17:00:00 23.4 15 Sudeste 26 Sudeste 0 -- -- 86
2019-09-26 16:00:00 23 23 Sudeste 29 Este 0 -- -- 86
2019-09-26 15:00:00 22.9 22 Este 32 Este 0 -- -- 86
2019-09-26 14:00:00 23.1 23 Este 30 Este 0 -- -- 84
2019-09-26 13:00:00 22.9 24 Este 31 Este 0 -- -- 84
2019-09-26 12:00:00 22.6 23 Sudeste 28 Sudeste 0 -- -- 85
2019-09-26 11:00:00 22.8 8 Sudoeste 11 Sur 0 -- -- 74
2019-09-26 10:00:00 23.1 5 Sudoeste 8 Sudoeste 0 -- -- 63
2019-09-26 09:00:00 22.1 2 Oeste 10 Noroeste 0 -- -- 60
2019-09-26 08:00:00 19.4 4 Noroeste 10 Oeste 0 -- -- 59
2019-09-26 07:00:00 19.5 6 Noroeste 9 Noroeste 0 -- -- 63
2019-09-26 06:00:00 20.2 4 Oeste 9 Norte 0 -- -- 68
2019-09-26 05:00:00 20.8 5 Norte 19 Nordeste 0 -- -- 77
2019-09-26 04:00:00 20.9 10 Nordeste 15 Nordeste 0 -- -- 78
2019-09-26 03:00:00 21 7 Nordeste 9 Nordeste 0 -- -- 75
2019-09-26 02:00:00 21.5 0 Calma 9 Oeste 0 -- -- 69
2019-09-26 01:00:00 22.2 7 Oeste 12 Oeste 0 -- -- 78
2019-09-26 00:00:00 22.5 4 Sudoeste 11 Noroeste 0 -- -- 67
2019-09-25 23:00:00 22.5 4 Noroeste 15 Norte 0 -- -- 61
2019-09-25 22:00:00 23.2 10 Noroeste 14 Noroeste 0 -- -- 66
2019-09-25 21:00:00 23.4 9 Nordeste 13 Nordeste 0 -- -- 79
2019-09-25 20:00:00 23.2 10 Nordeste 15 Nordeste 0 -- -- 83
2019-09-25 19:00:00 24.1 13 Nordeste 17 Nordeste 0 -- -- 78
2019-09-25 18:00:00 23.9 12 Nordeste 14 Nordeste 0 -- -- 74
2019-09-25 17:00:00 25.2 6 Este 14 Este 0 -- -- 67
2019-09-25 16:00:00 24.2 9 Este 14 Este 0 -- -- 75
2019-09-25 15:00:00 23.7 4 Este 11 Este 0 -- -- 75
2019-09-25 14:00:00 23.4 4 Sur 13 Este 0 -- -- 76
2019-09-25 13:00:00 23.5 9 Este 12 Este 0 -- -- 76
2019-09-25 12:00:00 23.3 4 Sudeste 8 Sur 0 -- -- 77
2019-09-25 11:00:00 23.9 5 Nordeste 7 Nordeste 0 -- -- 72
2019-09-25 10:00:00 24.2 5 Este 6 Este 0 -- -- 68
2019-09-25 09:00:00 22.9 3 Sudoeste 8 Oeste 0 -- -- 70
2019-09-25 08:00:00 20.1 4 Norte 8 Oeste 0 -- -- 74
2019-09-25 07:00:00 20.8 5 Oeste 10 Oeste 0 -- -- 78
2019-09-25 06:00:00 20.8 2 Noroeste 5 Nordeste 0 -- -- 74
2019-09-25 05:00:00 20.2 0 Calma 4 Oeste 0 -- -- 75
2019-09-25 04:00:00 20.3 3 Norte 4 Norte 0 -- -- 74
2019-09-25 03:00:00 19.8 2 Norte 6 Nordeste 0 -- -- 68
2019-09-25 02:00:00 20.5 2 Nordeste 6 Norte 0 -- -- 69
2019-09-25 01:00:00 21.1 0 Calma 8 Nordeste 0 -- -- 70
2019-09-25 00:00:00 21.7 5 Sudoeste 7 Oeste 0 -- -- 73
2019-09-24 23:00:00 21.9 4 Oeste 6 Sudoeste 0 -- -- 83
2019-09-24 22:00:00 22.5 0 Calma 5 Oeste 0 -- -- 78
2019-09-24 21:00:00 22.2 0 Calma 4 Sudoeste 0 -- -- 75
2019-09-24 20:00:00 22.5 3 Sudoeste 13 Sudoeste 0 -- -- 72
2019-09-24 19:00:00 23.2 9 Sudoeste 14 Sudoeste 0 -- -- 76
2019-09-24 18:00:00 22.8 12 Sudoeste 18 Sudoeste 0 -- -- 69
2019-09-24 17:00:00 23.2 13 Sudoeste 15 Sudoeste 0 -- -- 75
2019-09-24 16:00:00 23.6 13 Sudoeste 15 Sudoeste 0 -- -- 76
2019-09-24 15:00:00 22.9 9 Sudoeste 11 Sudoeste 0 -- -- 76
2019-09-24 14:00:00 22.9 9 Sudoeste 13 Sur 0 -- -- 79
2019-09-24 13:00:00 22.4 10 Sudoeste 11 Sudoeste 0 -- -- 79
2019-09-24 12:00:00 22.3 9 Sudoeste 12 Sudoeste 0 -- -- 78
2019-09-24 11:00:00 22.5 5 Sudoeste 7 Sudoeste 0 -- -- 72
2019-09-24 10:00:00 22.8 0 Calma 6 Noroeste 0 -- -- 61
2019-09-24 09:00:00 19.9 6 Noroeste 12 Noroeste 0 -- -- 61
2019-09-24 08:00:00 17.6 9 Noroeste 14 Noroeste 0 -- -- 69
2019-09-24 07:00:00 17.9 5 Noroeste 8 Noroeste 0 -- -- 69
2019-09-24 06:00:00 18.2 0 Calma 12 Noroeste 0 -- -- 71
2019-09-24 05:00:00 18.3 8 Noroeste 14 Norte 0 -- -- 69
2019-09-24 04:00:00 18.7 9 Noroeste 13 Norte 0 -- -- 68
2019-09-24 03:00:00 18.9 10 Norte 14 Noroeste 0 -- -- 69
2019-09-24 02:00:00 19.3 8 Norte 11 Norte 0 -- -- 70
2019-09-24 01:00:00 20 5 Norte 9 Norte 0 -- -- 69
2019-09-24 00:00:00 20.7 5 Norte 8 Norte 0 -- -- 68
2019-09-23 23:00:00 21.2 3 Norte 5 Noroeste 0 -- -- 65
2019-09-23 22:00:00 21.4 2 Este 5 Oeste 0 -- -- 67
2019-09-23 21:00:00 22.1 4 Oeste 10 Sudoeste 0 -- -- 75
2019-09-23 20:00:00 22.2 8 Sudoeste 12 Sudoeste 0 -- -- 70
2019-09-23 19:00:00 23 6 Sudoeste 9 Sudoeste 0 -- -- 63
2019-09-23 18:00:00 23.1 5 Sudoeste 6 Sudoeste 0 -- -- 62
2019-09-23 17:00:00 23.6 3 Sur 5 Sudeste 0 -- -- 60
2019-09-23 16:00:00 23.8 2 Sur 8 Sur 0 -- -- 60
2019-09-23 15:00:00 22.1 6 Sur 9 Sudoeste 0 -- -- 69
2019-09-23 14:00:00 21.8 7 Sudoeste 11 Sudoeste 0 -- -- 74
2019-09-23 13:00:00 21.7 8 Sudoeste 12 Sudoeste 0 -- -- 73
2019-09-23 12:00:00 21.9 12 Sudoeste 13 Sudoeste 0 -- -- 69
2019-09-23 11:00:00 22.4 5 Sudoeste 8 Sudoeste 0 -- -- 65
2019-09-23 10:00:00 22.2 6 Noroeste 12 Norte 0 -- -- 51
2019-09-23 09:00:00 21.8 3 Noroeste 9 Noroeste 0 -- -- 51
2019-09-23 08:00:00 18.7 4 Noroeste 10 Norte 0 -- -- 63
2019-09-23 07:00:00 18.6 4 Noroeste 14 Norte 0 -- -- 61
2019-09-23 06:00:00 19.2 5 Norte 15 Norte 0 -- -- 57
2019-09-23 05:00:00 19.4 12 Norte 18 Noroeste 0 -- -- 53
2019-09-23 04:00:00 19.7 10 Noroeste 17 Norte 0 -- -- 52
2019-09-23 03:00:00 19.6 9 Norte 16 Norte 0 -- -- 53
2019-09-23 02:00:00 19.4 5 Noroeste 10 Norte 0 -- -- 57
2019-09-23 01:00:00 19.8 3 Noroeste 7 Noroeste 0 -- -- 58
2019-09-23 00:00:00 20.1 4 Oeste 8 Oeste 0 -- -- 66
2019-09-22 23:00:00 20.9 6 Noroeste 9 Noroeste 0 -- -- 68
2019-09-22 22:00:00 22.6 3 Nordeste 21 Nordeste 0 -- -- 73
2019-09-22 21:00:00 22.6 17 Nordeste 25 Nordeste 0 -- -- 76
2019-09-22 20:00:00 22.8 16 Nordeste 38 Sudoeste 0 -- -- 70
2019-09-22 19:00:00 22.8 31 Sudoeste 40 Sur 0 -- -- 69
2019-09-22 18:00:00 22.8 27 Sudoeste 40 Sudoeste 0 -- -- 72
2019-09-22 17:00:00 23.3 31 Sudoeste 40 Sudoeste 0 -- -- 76
2019-09-22 16:00:00 23.3 28 Sudoeste 37 Sudoeste 0 -- -- 73
2019-09-22 15:00:00 25.6 22 Oeste 40 Sudoeste 0 -- -- 60
2019-09-22 14:00:00 24.3 28 Sudoeste 45 Sudoeste 0 -- -- 76
2019-09-22 13:00:00 23.3 32 Sudoeste 41 Sudoeste 0 -- -- 84
2019-09-22 12:00:00 23.1 33 Sudoeste 39 Sudoeste 0 -- -- 84
2019-09-22 11:00:00 22.9 26 Sudoeste 34 Sudoeste 0 -- -- 84
2019-09-22 10:00:00 22.9 23 Sudoeste 30 Sudoeste 0 -- -- 83
2019-09-22 09:00:00 22.4 12 Oeste 21 Oeste 0 -- -- 80
2019-09-22 08:00:00 20.3 3 Oeste 10 Sudoeste 0 -- -- 84
2019-09-22 07:00:00 19.9 4 Norte 10 Noroeste 0 -- -- 82
2019-09-22 06:00:00 20.1 6 Norte 12 Noroeste 0 -- -- 81
2019-09-22 05:00:00 20.5 3 Norte 6 Noroeste 0 -- -- 80
2019-09-22 04:00:00 20.8 0 Calma 12 Noroeste 0 -- -- 81
2019-09-22 03:00:00 21.1 7 Noroeste 11 Noroeste 0 -- -- 80
2019-09-22 02:00:00 21.7 0 Calma 7 Noroeste 0 -- -- 79
2019-09-22 01:00:00 22.3 2 Norte 8 Oeste 0 -- -- 79
2019-09-22 00:00:00 22.2 6 Oeste 8 Oeste 0 -- -- 77
2019-09-21 23:00:00 22.8 2 Oeste 9 Norte 0 -- -- 76
2019-09-21 22:00:00 22.8 5 Nordeste 7 Nordeste 0 -- -- 79
2019-09-21 21:00:00 22.5 2 Oeste 9 Sur 0 -- -- 81
2019-09-21 20:00:00 22.8 6 Sudoeste 8 Sur 0 -- -- 80
2019-09-21 19:00:00 23.2 5 Sudoeste 7 Sudoeste 0 -- -- 75
2019-09-21 18:00:00 23.3 3 Sur 12 Sudoeste 0 -- -- 73
2019-09-21 17:00:00 23.6 11 Sudoeste 14 Sudoeste 0 -- -- 78
2019-09-21 16:00:00 23.8 6 Sudoeste 9 Sur 0 -- -- 79
2019-09-21 15:00:00 23.9 8 Sudoeste 14 Sudoeste 0 -- -- 83
2019-09-21 14:00:00 23.3 9 Sudoeste 14 Sur 0 -- -- 86
2019-09-21 13:00:00 23.6 11 Sudoeste 13 Sudoeste 0 -- -- 87
2019-09-21 12:00:00 22.8 6 Sur 10 Sudoeste 0 -- -- 89
2019-09-21 11:00:00 22.9 5 Sur 6 Sur 0 -- -- 87
2019-09-21 10:00:00 22.9 3 Norte 9 Norte 0 -- -- 86
2019-09-21 09:00:00 21.9 4 Norte 13 Norte 0 -- -- 88
2019-09-21 08:00:00 21.6 3 Noroeste 9 Noroeste 0 -- -- 91
2019-09-21 07:00:00 21.7 5 Noroeste 8 Noroeste 0 -- -- 92
2019-09-21 06:00:00 22.3 0 Calma 4 Oeste 0 -- -- 91
2019-09-21 05:00:00 22.5 0 Calma 7 Sudoeste 0 -- -- 91
2019-09-21 04:00:00 22.8 2 Noroeste 5 Noroeste 0 -- -- 90
2019-09-21 03:00:00 23.1 0 Calma 5 Este 0 -- -- 89
2019-09-21 02:00:00 23.2 3 Sudoeste 5 Este 0 -- -- 89
2019-09-21 01:00:00 23.3 2 Nordeste 6 Este 0 -- -- 89
2019-09-21 00:00:00 23.2 5 Este 10 Este 0 -- -- 90
2019-09-20 23:00:00 23.3 6 Este 8 Este 0 -- -- 88
2019-09-20 22:00:00 23.5 3 Nordeste 6 Este 0 -- -- 87
2019-09-20 21:00:00 23.5 2 Nordeste 6 Nordeste 0 -- -- 87
2019-09-20 20:00:00 23.9 0 Calma 9 Nordeste 0 -- -- 87
2019-09-20 19:00:00 23.9 5 Nordeste 14 Nordeste 0 -- -- 88
2019-09-20 18:00:00 24 10 Este 15 Este 0 -- -- 88
2019-09-20 17:00:00 24.5 9 Nordeste 15 Este 0 -- -- 86
2019-09-20 16:00:00 23.9 13 Este 19 Este 0 -- -- 88
2019-09-20 15:00:00 24.6 12 Este 26 Este 0 -- -- 86
2019-09-20 14:00:00 25 21 Este 30 Este 0 -- -- 84
2019-09-20 13:00:00 24.8 22 Este 28 Este 0 -- -- 84
2019-09-20 12:00:00 24.3 11 Este 15 Este 0 -- -- 85
2019-09-20 11:00:00 24.6 7 Nordeste 14 Nordeste 0 -- -- 83
2019-09-20 10:00:00 23.6 9 Nordeste 14 Nordeste 0 -- -- 85
2019-09-20 09:00:00 23.3 10 Nordeste 13 Nordeste 0 -- -- 86
2019-09-20 08:00:00 23.3 12 Nordeste 20 Este 0 -- -- 85
2019-09-20 07:00:00 23.5 15 Nordeste 22 Este 0 -- -- 82
2019-09-20 06:00:00 23.3 15 Este 23 Este 0 -- -- 83
2019-09-20 05:00:00 23.1 19 Nordeste 24 Nordeste 0 -- -- 84
2019-09-20 04:00:00 21.8 4 Norte 9 Norte 0 -- -- 81
2019-09-20 03:00:00 21.4 6 Norte 14 Noroeste 0 -- -- 81
2019-09-20 02:00:00 21.6 8 Norte 12 Norte 0 -- -- 87
2019-09-20 01:00:00 22.1 5 Norte 10 Noroeste 0 -- -- 88
2019-09-20 00:00:00 22.5 2 Noroeste 11 Este 0 -- -- 90
2019-09-19 23:00:00 22.8 5 Sudeste 10 Este 0 -- -- 92
2019-09-19 22:00:00 22.7 7 Este 9 Este 0 -- -- 91
2019-09-19 21:00:00 22.8 3 Este 4 Este 0 -- -- 89
2019-09-19 20:00:00 23.1 0 Calma 4 Sudeste 0 -- -- 87
2019-09-19 19:00:00 23.5 4 Sudeste 7 Este 0 -- -- 86
2019-09-19 18:00:00 23.6 7 Este 11 Sudeste 0 -- -- 86
2019-09-19 17:00:00 24.3 6 Sudeste 11 Este 0 -- -- 82
2019-09-19 16:00:00 24.2 4 Sur 10 Sudeste 0 -- -- 82
2019-09-19 15:00:00 23.6 7 Sudeste 12 Este 0 -- -- 84
2019-09-19 14:00:00 23.6 6 Sudeste 9 Sur 0 -- -- 84
2019-09-19 13:00:00 23.3 8 Sur 10 Sur 0 -- -- 85
2019-09-19 12:00:00 23.2 8 Sur 10 Sur 0 -- -- 86
2019-09-19 11:00:00 23.4 6 Sudoeste 13 Sudoeste 0 -- -- 85
2019-09-19 10:00:00 23.7 10 Sudoeste 13 Sudoeste 0 -- -- 82
2019-09-19 09:00:00 22.5 4 Noroeste 10 Noroeste 0 -- -- 80
2019-09-19 08:00:00 20.2 6 Noroeste 12 Noroeste 0 -- -- 85
2019-09-19 07:00:00 20.8 4 Noroeste 8 Noroeste 0 -- -- 87
2019-09-19 06:00:00 20.8 6 Noroeste 9 Noroeste 0 -- -- 85
2019-09-19 05:00:00 21.7 2 Norte 6 Este 0 -- -- 87
2019-09-19 04:00:00 22.4 4 Nordeste 10 Nordeste 0 -- -- 82
2019-09-19 03:00:00 22.3 8 Norte 10 Norte 0 -- -- 85
2019-09-19 02:00:00 22.3 5 Nordeste 13 Norte 0 -- -- 86
2019-09-19 01:00:00 22.7 5 Norte 10 Nordeste 0 -- -- 89
2019-09-19 00:00:00 23 0 Calma 6 Oeste 0 -- -- 87
2019-09-18 23:00:00 23.2 3 Sudoeste 7 Sudoeste 0 -- -- 89
2019-09-18 22:00:00 23.3 3 Sudoeste 4 Sudoeste 0 -- -- 87
2019-09-18 21:00:00 23.5 2 Sudeste 5 Sudeste 0 -- -- 86
2019-09-18 20:00:00 23.8 3 Nordeste 5 Sudeste 0 -- -- 82
2019-09-18 19:00:00 23.8 3 Sur 7 Sur 0 -- -- 81
2019-09-18 18:00:00 24.2 6 Sudoeste 11 Sudoeste 0 -- -- 80
2019-09-18 17:00:00 24.5 7 Sudoeste 10 Sur 0 -- -- 82
2019-09-18 16:00:00 24.3 8 Sur 12 Sur 0 -- -- 81
2019-09-18 15:00:00 24.2 9 Sur 16 Sur 0 -- -- 81
2019-09-18 14:00:00 23.5 13 Sur 16 Sur 0 -- -- 86
2019-09-18 13:00:00 23.5 9 Sur 15 Sudoeste 0 -- -- 84
2019-09-18 12:00:00 23.5 13 Sudoeste 16 Sudoeste 0 -- -- 86
2019-09-18 11:00:00 23.5 10 Sur 12 Sur 0 -- -- 81
2019-09-18 10:00:00 24 5 Noroeste 15 Noroeste 0 -- -- 70
2019-09-18 09:00:00 21 9 Norte 15 Noroeste 0 -- -- 82
2019-09-18 08:00:00 20.2 9 Noroeste 15 Noroeste 0 -- -- 85
2019-09-18 07:00:00 20.4 9 Noroeste 13 Noroeste 0 -- -- 83
2019-09-18 06:00:00 20.6 6 Noroeste 12 Norte 0 -- -- 84
2019-09-18 05:00:00 20.9 6 Norte 9 Noroeste 0 -- -- 84
2019-09-18 04:00:00 21.3 3 Noroeste 8 Noroeste 0 -- -- 83
2019-09-18 03:00:00 21.7 8 Norte 13 Norte 0 -- -- 82
2019-09-18 02:00:00 21.8 10 Norte 14 Norte 0 -- -- 84
2019-09-18 01:00:00 22.3 4 Norte 9 Norte 0 -- -- 85
2019-09-18 00:00:00 22.7 3 Norte 9 Nordeste 0 -- -- 85
2019-09-17 23:00:00 23.4 5 Norte 10 Norte 0 -- -- 82
2019-09-17 22:00:00 23.8 5 Norte 9 Norte 0 -- -- 81
2019-09-17 21:00:00 23.8 0 Calma 4 Este 0 -- -- 83